TimeCST,TemperatureF,Dew PointF,Humidity,Sea Level PressureIn,VisibilityMPH,Wind Direction,Wind SpeedMPH,Gust SpeedMPH,PrecipitationIn,Events,Conditions,WindDirDegrees,DateUTC
12:38 AM,3.9,-2.0,76,30.11,2.5,WSW,8.1,-,0.00,Snow,Light Snow,250,2013-02-02 06:38:00
12:51 AM,3.2,-2.2,78,30.10,4.0,WSW,9.2,-,0.00,Snow,Light Snow,250,2013-02-02 06:51:00
12:53 AM,3.9,-2.9,73,30.16,4.0,West,8.1,-,0.00,Snow,Light Snow,260,2013-02-02 06:53:00
1:53 AM,3.9,-2.0,76,30.16,10.0,WSW,5.8,-,0.00,,Overcast,250,2013-02-02 07:53:00
2:37 AM,3.9,-2.0,76,30.09,2.0,WNW,4.6,-,0.01,Snow,Light Snow,290,2013-02-02 08:37:00
2:53 AM,3.9,-2.0,76,30.14,3.0,NW,4.6,-,0.01,Snow,Light Snow,310,2013-02-02 08:53:00
3:53 AM,3.9,-2.0,76,30.12,5.0,NW,4.6,-,0.00,Snow,Light Snow,320,2013-02-02 09:53:00
4:53 AM,3.9,-2.9,73,30.12,7.0,NW,9.2,-,0.00,,Overcast,310,2013-02-02 10:53:00
5:53 AM,3.2,-4.0,72,30.07,9.0,North,5.8,-,N/A,,Overcast,350,2013-02-02 11:53:00
6:53 AM,3.0,-4.0,73,30.14,9.0,NNW,6.9,-,0.00,,Overcast,330,2013-02-02 12:53:00
7:53 AM,3.0,-5.1,69,30.15,10.0,North,6.9,-,N/A,,Overcast,350,2013-02-02 13:53:00
8:53 AM,3.0,-6.0,66,30.16,10.0,North,6.9,-,N/A,,Scattered Clouds,360,2013-02-02 14:53:00
9:53 AM,3.9,-6.0,64,30.16,10.0,WNW,6.9,-,N/A,,Clear,290,2013-02-02 15:53:00
10:53 AM,6.1,-5.1,60,30.16,10.0,NW,6.9,-,N/A,,Clear,310,2013-02-02 16:53:00
11:53 AM,8.1,-2.9,61,30.14,10.0,NW,5.8,-,N/A,,Clear,310,2013-02-02 17:53:00
12:53 PM,10.0,-2.0,58,30.12,10.0,WNW,6.9,-,N/A,,Clear,290,2013-02-02 18:53:00
1:53 PM,10.9,-2.9,54,30.12,10.0,WNW,10.4,-,N/A,,Clear,300,2013-02-02 19:53:00
2:53 PM,12.0,-2.0,53,30.11,10.0,WNW,6.9,-,N/A,,Clear,300,2013-02-02 20:53:00
3:53 PM,10.9,-2.9,54,30.11,10.0,NW,4.6,-,N/A,,Clear,320,2013-02-02 21:53:00
4:53 PM,9.0,-4.0,56,30.12,10.0,SW,5.8,-,N/A,,Clear,220,2013-02-02 22:53:00
5:53 PM,7.0,-4.0,61,30.12,10.0,SSW,4.6,-,N/A,,Clear,200,2013-02-02 23:53:00
6:53 PM,6.1,-4.0,63,30.12,10.0,South,4.6,-,N/A,,Scattered Clouds,190,2013-02-03 00:53:00
7:53 PM,5.0,-4.0,66,30.11,10.0,South,3.5,-,N/A,,Clear,190,2013-02-03 01:53:00
8:53 PM,3.0,-4.0,73,30.09,10.0,SSW,4.6,-,N/A,,Clear,210,2013-02-03 02:53:00
9:53 PM,-5.1,-7.1,91,30.07,10.0,West,5.8,-,N/A,,Clear,280,2013-02-03 03:53:00
10:53 PM,-0.9,-6.0,79,30.06,10.0,South,4.6,-,N/A,,Mostly Cloudy,190,2013-02-03 04:53:00
11:53 PM,1.9,-4.0,76,30.03,9.0,Calm,Calm,-,N/A,,Overcast,0,2013-02-03 05:53:00